Rome Ciampino, Italy

8:21 AM CET on December 12, 2017 (GMT +0100)
Ciampino

Weather History for LIRA - March, 2013

Change the Weather History Date:

Friday, March 29, 2013

  Actual Average Record
Temperature  
Mean Temperature 58 °F -  
Max Temperature 62 °F 65 °F 71 °F (2012)
Min Temperature 53 °F 46 °F 37 °F (2002)
Degree Days  
Heating Degree Days 8    
Growing Degree Days 8 (Base 50)    
Moisture  
Dew Point 53 °F    
Average Humidity 85    
Maximum Humidity 100    
Minimum Humidity 72    
Precipitation  
Precipitation 0.00 in 0.09 in - ()
Sea Level Pressure  
Sea Level Pressure 29.81 in    
Wind  
Wind Speed 11 mph ()    
Max Wind Speed 17 mph    
Max Gust Speed -    
Visibility 5.8 miles    
Events      
Averages and records for this station are not official NWS values.
T = Trace of Precipitation, MM = Missing Value Source: Averaged Metar Reports

Daily Weather History Graph

Daily Weather History Graph

Search for Another Location

Airport or City:

Trip Planner

Search our weather history database for the weather conditions in past years. The results will help you decide how hot, cold, wet, or windy it might be!

Date:

Astronomy

Mar. 29, 2013 Rise Set
Actual Time 5:57 AM CET 6:31 PM CET
Civil Twilight 5:29 AM CET 6:59 PM CET
Nautical Twilight 4:56 AM CET 7:33 PM CET
Astronomical Twilight 4:22 AM CET 8:07 PM CET
Moon 9:15 PM CET (3/29) 6:52 AM CET (3/29)
Length of Visible Light 13h 30m
Length of Day
12h 34m
Waning Gibbous, 95% of the Moon is Illuminated
Mar 29
Waning Gibbous
Apr 3
Last Quarter
Apr 10
New
Apr 18
First Quarter
Apr 25
Full

Hourly Weather History & Observations

Time (CET) Temp. Dew Point Humidity Pressure Visibility Wind Dir Wind Speed Gust Speed Precip Events Conditions
12:15 AM 53.6 °F 53.6 °F 100% 29.86 in 6.2 mi SSE 12.7 mph - N/A   Scattered Clouds
12:45 AM 53.6 °F 53.6 °F 100% 29.86 in 6.2 mi SSE 11.5 mph - N/A   Scattered Clouds
1:15 AM 53.6 °F 53.6 °F 100% 29.86 in 6.2 mi SSE 11.5 mph - N/A   Scattered Clouds
1:45 AM 53.6 °F 51.8 °F 94% 29.86 in 6.2 mi SSE 10.4 mph - N/A   Scattered Clouds
2:15 AM 55.4 °F 53.6 °F 94% 29.83 in 6.2 mi SSE 13.8 mph - N/A   Scattered Clouds
2:45 AM 55.4 °F 53.6 °F 94% 29.83 in 6.2 mi SSE 13.8 mph - N/A   Scattered Clouds
3:15 AM 53.6 °F 53.6 °F 100% 29.83 in 6.2 mi SSE 10.4 mph - N/A   Scattered Clouds
3:45 AM 53.6 °F 53.6 °F 100% 29.83 in 6.2 mi South 12.7 mph - N/A   Scattered Clouds
4:15 AM 53.6 °F 53.6 °F 100% 29.83 in 6.2 mi SSE 9.2 mph - N/A   Scattered Clouds
4:45 AM 53.6 °F 53.6 °F 100% 29.83 in 6.2 mi SSE 10.4 mph - N/A   Scattered Clouds
5:15 AM 53.6 °F 53.6 °F 100% 29.83 in 5.0 mi SSE 10.4 mph - N/A   Mostly Cloudy
5:45 AM 53.6 °F 53.6 °F 100% 29.83 in 5.0 mi SSE 10.4 mph - N/A   Mostly Cloudy
6:15 AM 53.6 °F 53.6 °F 100% 29.80 in 5.0 mi SSE 17.3 mph - N/A   Mostly Cloudy
6:45 AM 55.4 °F 53.6 °F 94% 29.80 in 5.0 mi SSE 12.7 mph - N/A   Scattered Clouds
7:15 AM 57.2 °F 55.4 °F 94% 29.83 in 5.0 mi SSE 13.8 mph - N/A   Scattered Clouds
7:45 AM 57.2 °F 55.4 °F 94% 29.83 in 5.0 mi SSE 12.7 mph - N/A   Scattered Clouds
8:15 AM 57.2 °F 55.4 °F 94% 29.83 in 5.0 mi SSE 15.0 mph - N/A   Mostly Cloudy
8:45 AM 57.2 °F 53.6 °F 88% 29.83 in 5.0 mi SSE 13.8 mph - N/A   Mostly Cloudy
9:15 AM 60.8 °F 55.4 °F 82% 29.83 in 5.0 mi SSE 13.8 mph - N/A   Scattered Clouds
9:45 AM 60.8 °F 55.4 °F 82% 29.83 in 5.0 mi SSE 10.4 mph - N/A   Scattered Clouds
10:15 AM 60.8 °F 55.4 °F 82% 29.83 in 5.0 mi South 11.5 mph - N/A   Scattered Clouds
10:45 AM 59.0 °F 53.6 °F 82% 29.86 in 5.0 mi South 10.4 mph - N/A   Scattered Clouds
11:15 AM 60.8 °F 55.4 °F 82% 29.83 in 5.0 mi South 12.7 mph - N/A   Scattered Clouds
11:45 AM 60.8 °F 55.4 °F 82% 29.83 in 3.7 mi South 13.8 mph - N/A   Scattered Clouds
12:15 PM 62.6 °F 55.4 °F 77% 29.83 in 5.0 mi South 13.8 mph - N/A   Scattered Clouds
12:45 PM 60.8 °F 53.6 °F 77% 29.83 in 5.0 mi SSW 12.7 mph - N/A   Scattered Clouds
1:15 PM 60.8 °F 53.6 °F 77% 29.83 in 6.2 mi South 12.7 mph - N/A   Scattered Clouds
1:45 PM 60.8 °F 53.6 °F 77% 29.83 in 6.2 mi South 12.7 mph - N/A   Scattered Clouds
2:15 PM 59.0 °F 53.6 °F 82% 29.83 in 6.2 mi South 10.4 mph - N/A   Mostly Cloudy
2:45 PM 60.8 °F 55.4 °F 82% 29.80 in 6.2 mi South 12.7 mph - N/A   Mostly Cloudy
3:15 PM 60.8 °F 51.8 °F 72% 29.80 in 6.2 mi South 10.4 mph - N/A   Mostly Cloudy
3:45 PM 60.8 °F 53.6 °F 77% 29.80 in 6.2 mi SSW 10.4 mph - N/A   Mostly Cloudy
4:15 PM 60.8 °F 51.8 °F 72% 29.80 in 6.2 mi South 9.2 mph - N/A   Mostly Cloudy
4:45 PM 60.8 °F 53.6 °F 77% 29.77 in 6.2 mi South 8.1 mph - N/A   Partly Cloudy
5:15 PM 59.0 °F 51.8 °F 77% 29.77 in 6.2 mi South 10.4 mph - N/A   Partly Cloudy
5:45 PM 59.0 °F 53.6 °F 82% 29.77 in 6.2 mi South 10.4 mph - N/A   Partly Cloudy
6:15 PM 60.8 °F 53.6 °F 77% 29.74 in 6.2 mi SSE 9.2 mph - N/A   Partly Cloudy
6:45 PM 59.0 °F 53.6 °F 82% 29.74 in 6.2 mi South 8.1 mph - N/A   Scattered Clouds
7:15 PM 57.2 °F 51.8 °F 82% 29.74 in 6.2 mi SSE 9.2 mph - N/A   Mostly Cloudy
7:45 PM 59.0 °F 53.6 °F 82% 29.77 in 6.2 mi South 8.1 mph - N/A   Mostly Cloudy
8:15 PM 59.0 °F 53.6 °F 82% 29.77 in 6.2 mi SSE 13.8 mph - N/A   Mostly Cloudy
8:45 PM 59.0 °F 50.0 °F 72% 29.77 in 6.2 mi SSW 6.9 mph - N/A   Mostly Cloudy
9:15 PM 57.2 °F 48.2 °F 72% 29.77 in 6.2 mi South 17.3 mph - N/A   Mostly Cloudy
9:45 PM 59.0 °F 50.0 °F 72% 29.77 in 6.2 mi SSE 13.8 mph - N/A   Mostly Cloudy
10:15 PM 59.0 °F 50.0 °F 72% 29.77 in 6.2 mi SSE 12.7 mph - N/A   Mostly Cloudy
10:45 PM 59.0 °F 50.0 °F 72% 29.74 in 6.2 mi SSE 11.5 mph - N/A   Mostly Cloudy
11:15 PM 59.0 °F 50.0 °F 72% 29.74 in 6.2 mi South 11.5 mph - N/A   Mostly Cloudy
11:45 PM 57.2 °F 50.0 °F 77% 29.74 in 6.2 mi South 12.7 mph - N/A   Mostly Cloudy